Hourly Data Report for October 13, 2013

All times are specified in Local Standard Time (LST). Add 1 hour to adjust for Daylight Saving Time where and when it is observed.

EMERSON AUTO
MANITOBA

49°00'00.000" N
97°14'15.000" W
242.00 m
5020881
71560
WEX

Related Data

No related data is available for this station

Download Data

Hourly Data (October 2013)
Hourly Data Report for October 13, 2013
Temp Definition
°C
Dew Point Temp Definition
°C
Rel Hum Definition
%
Wind Dir Definition
10's deg

Wind Spd Definition
km/h
Visibility Definition
km
Stn Press Definition
kPa
Hmdx Definition


Wind Chill Definition


Weather Definition


TIME
00:00 0.4 -0.4 94 22 9   99.16     LegendNANA
01:00 0.4 -0.7 92 20 9   99.20     LegendNANA
02:00 -0.6 -1.6 93 22 9   99.25   -4 LegendNANA
03:00 0.2 -0.7 94 20 7   99.30     LegendNANA
04:00 -0.3 -1.4 92 22 9   99.37   -3 LegendNANA
05:00 -0.6 -1.7 92 22 9   99.42   -4 LegendNANA
06:00 -1.0 -2.0 93 24 7   99.49   -4 LegendNANA
07:00 -2.0 -3.3 91 24 7   99.57   -5 LegendNANA
08:00 1.0 -0.5 90 26 6   99.63     LegendNANA
09:00 4.8 0.8 75 28 9   99.72     LegendNANA
10:00 7.3 1.6 67 29 13   99.77     LegendNANA
11:00 9.6 1.7 58 28 13   99.78     LegendNANA
12:00 11.2 1.0 49 29 13   99.80     LegendNANA
13:00 12.0 -0.6 42 28 17   99.77     LegendNANA
14:00 12.1 -1.0 40 32 9   99.74     LegendNANA
15:00 11.7 -1.7 39 33 11   99.72     LegendNANA
16:00 12.3 -1.6 38 25 4   99.71     LegendNANA
17:00 11.1 -1.6 41 4 4   99.71     LegendNANA
18:00 8.8 -0.4 52 5 4   99.72     LegendNANA
19:00 4.5 -1.0 67 8 4   99.75     LegendNANA
20:00 3.7 1.7 87 10 4   99.78     LegendNANA
21:00 2.6 -0.9 78 12 7   99.82     LegendNANA
22:00 4.0 -1.0 70 12 9   99.84     LegendNANA
23:00 3.4 -1.4 71 12 9   99.87     LegendNANA

Notes on Data Quality.

Legend

  • E = Estimated
  • M = Missing
  • NA = Not Available
  • ‡ = Partner data that is not subject to review by the National Climate Archives
Date modified: